Location: Arrington
(35.8681°N, 86.7092°W)
Time: 13:14:54
(UTC+00:00)

BREEZE-M DEB (TANK) - Pass Details

Date: 23 November 2019
Orbit: 313 x 16427 km, 49.5° (Epoch: 09 December)

Event Time Altitude Azimuth Distance (km) Brightness Sun altitude
Exits shadow 10:26:49 26° 315° (NW) 3,301 5.8 -24.9°
Maximum altitude 10:32:20 52° 19° (NNE) 1,325 4.2 -23.8°
Drops below altitude 10° 10:36:15 10° 98° (E) 1,956 6.2 -23.0°
Sets 10:37:38 0° 104° (ESE) 2,550 7.2 -22.7°
